Location: Brotuna
(46.2000°N, 22.6000°E)
Time: 05:27:50
(UTC+00:00)

IRIDIUM 106 - Pass Details

Date: 09 April 2020
Orbit: 776 x 779 km, 86.4° (Epoch: 01 June)

Event Time Altitude Azimuth Distance (km) Brightness Sun altitude
Rises 17:34:27 0° 357° (N) 3,275 7.8 -5.0°
Reaches altitude 10° 17:36:50 10° 360° (N) 2,342 7.1 -5.4°
Maximum altitude 17:42:05 75° 86° (E) 809 4.3 -6.3°
Drops below altitude 10° 17:47:17 10° 172° (S) 2,323 6.5 -7.1°
Sets 17:49:37 0° 174° (S) 3,246 7.3 -7.5°
